Weather in Kolkovo

Russia / Kirov Oblast     58°38′18″N   48°54′18″E
temp.,
°C
wind,
m/s
gust,
m/s
humid.,
%
clouds,
%
prec.,
mm/h
press.,
hPa
HPBL,
m
21 april, wed
wed2100:00−2ese26895 0.0 103091
03:00−1ese31082100 0.0 1029183
06:00+1ese41365100 0.0 1027422
09:00+6se61550100 0.0 10251052
12:00+9se71446100 0.0 10231258
15:00+6sse61557100 0.4 10221356
18:00+2sse61595100 1.2 10211025
21:00+1sse61597100 5.5 1020920
22 april, thu
thu2200:00+1sse51397100 3.0 1018857
03:00+2sse51297100 3.4 1018743
06:00+2sse51397100 0.4 1017767
09:00+4ssw61197100 1.6 10181003
12:00+6ssw51084100 0.1 1020965
15:00+8ssw4974100 0.2 10211346
18:00+6sse41093100 0.3 1021919
21:00+6s5129287 1.8 1021653
23 april, fri
fri2300:00+4ssw379778 0.1 1022212
03:00+3ssw2599100 0.1 1024143
06:00+4ssw279313 0.0 1024261
09:00+8ssw35745 0.0 1025756
12:00+11ssw34598 0.0 10241284
15:00+12ssw335663 0.0 10241462
18:00+10sse2568100 0.0 1024105
21:00+7se38866 0.0 1025257
24 april, sat
sat2400:00+4ese26946 0.0 1024130
03:00+3e279564 0.0 1023140
06:00+5ese3889100 0.0 1023272
09:00+8ese467748 0.0 1021679
12:00+9ese467070 0.1 1019742
15:00+9e4667100 0.2 10171450
18:00+7ese3675100 0.1 1016583
21:00+6e2687100 0.1 1014319
25 april, sun
sun2500:00+5e3796100 0.1 1012513
03:00+5ese3797100 0.6 1010391
06:00+5ese3897100 0.1 1008491
09:00+6ese3790100 0.1 1007528
12:00+7se3579100 0.3 1006900
15:00+5ssw5593100 1.4 1006786
18:00+3wsw31097100 1.8 1008606
21:00+3ssw2796100 1.8 1008215